TimeMDT,TemperatureF,Dew PointF,Humidity,Sea Level PressureIn,VisibilityMPH,Wind Direction,Wind SpeedMPH,Gust SpeedMPH,PrecipitationIn,Events,Conditions,WindDirDegrees,DateUTC
12:00 AM,16,14,87,30.34,,ENE,2.3,,,,,60,2013-05-27 06:00:00
12:00 AM,16.3,13.8,90,30.34,-9999.0,ENE,2.3,-,N/A,,Unknown,60,2013-05-27 06:00:00
1:00 AM,12.9,10.9,92,30.34,-9999.0,East,4.6,-,N/A,,Unknown,100,2013-05-27 07:00:00
2:00 AM,10.6,8.6,92,30.34,-9999.0,SE,5.8,-,N/A,,Unknown,130,2013-05-27 08:00:00
4:00 AM,11.5,9.3,91,30.33,-9999.0,SE,4.6,-,N/A,,Unknown,140,2013-05-27 10:00:00
5:00 AM,12.6,10.6,92,30.33,-9999.0,SE,4.6,-,N/A,,Unknown,140,2013-05-27 11:00:00
6:00 AM,14,12,89,30.32,,SE,3.5,,,,,130,2013-05-27 12:00:00
6:00 AM,14.2,12.2,92,30.32,-9999.0,SE,3.5,-,N/A,,Unknown,130,2013-05-27 12:00:00
7:00 AM,15.1,13.3,93,30.31,-9999.0,ESE,3.5,-,N/A,,Unknown,110,2013-05-27 13:00:00
8:00 AM,14.7,12.7,92,30.30,-9999.0,ESE,4.6,-,N/A,,Unknown,110,2013-05-27 14:00:00
9:00 AM,15.3,13.1,91,30.28,-9999.0,East,4.6,-,N/A,,Unknown,100,2013-05-27 15:00:00
10:00 AM,16.7,14.7,92,30.27,-9999.0,East,10.4,-,N/A,,Unknown,100,2013-05-27 16:00:00
11:00 AM,18.9,16.5,91,30.26,-9999.0,East,6.9,-,N/A,,Unknown,100,2013-05-27 17:00:00
12:00 PM,21,18,84,30.25,,East,8.1,,,,,100,2013-05-27 18:00:00
12:00 PM,20.7,18.1,90,30.25,-9999.0,East,8.1,-,N/A,,Unknown,100,2013-05-27 18:00:00
1:00 PM,22.8,19.8,88,30.23,-9999.0,ESE,9.2,-,N/A,,Unknown,110,2013-05-27 19:00:00
3:00 PM,26.1,21.7,84,30.22,-9999.0,ESE,9.2,-,N/A,,Unknown,110,2013-05-27 21:00:00
4:00 PM,26.2,21.6,82,30.21,-9999.0,ESE,10.4,-,N/A,,Unknown,120,2013-05-27 22:00:00
5:00 PM,27.3,22.3,81,30.19,-9999.0,SE,8.1,-,N/A,,Unknown,130,2013-05-27 23:00:00
6:00 PM,26,22,76,30.17,,ESE,10.4,,,,,120,2013-05-28 00:00:00
6:00 PM,26.1,21.6,83,30.17,-9999.0,ESE,10.4,-,N/A,,Unknown,120,2013-05-28 00:00:00
7:00 PM,26.6,21.0,79,30.16,-9999.0,ESE,5.8,-,N/A,,Unknown,120,2013-05-28 01:00:00
8:00 PM,20.8,17.2,86,30.14,-9999.0,SSE,8.1,-,N/A,,Unknown,150,2013-05-28 02:00:00
9:00 PM,19.0,14.4,82,30.13,-9999.0,SE,8.1,-,N/A,,Unknown,140,2013-05-28 03:00:00
10:00 PM,18.0,12.9,81,30.12,-9999.0,SE,4.6,-,N/A,,Unknown,130,2013-05-28 04:00:00
11:00 PM,18.5,13.8,82,30.10,-9999.0,SSE,3.5,-,N/A,,Unknown,150,2013-05-28 05:00:00